(°F)
62°
65°
65°
65°
63°
61°
59°
(°F)
61°
62°
62°
61°
60°
59°
57°
W
W
W
W
W
W
WNW
(mph)
3-6
5-8
5-9
7-9
7-9
6-8
4-7
(in)
0
0
0
0
0
0
0
(%)
0
0
0
0
0
0
0

Sun elevation

/ 40°
sun-icon
UV 4
07:50
18:52
Full moon (177°)
19:01
07:25

METAR for Ioannina (LGIO)

Time Conditions Temperature/
Dewpoint
Wind Visibility Weather Clouds Pressure Change Raw
VFR 62.6°F / 51.8°F variable 0kt >10km - Few Clouds 1000ft 1028 - LGIO 201020Z 00000KT 9999 FEW010 17/11 Q1028
VFR 59°F / 51.8°F variable 0kt >10km - Few Clouds 1000ft 1028 - LGIO 200950Z 00000KT 9999 FEW010 15/11 Q1028
MVFR 53.6°F / 51.8°F variable 0kt 8000m - Scattered Clouds 400ft 1028 - LGIO 200920Z 00000KT 8000 SCT004 12/11 Q1028
LIFR 51.8°F / 51.8°F variable 0kt 1500m Mist Vertical Visibility of 0ft. 1028 - LGIO 200850Z 00000KT 1500 BR SCT004 11/11 Q1028
LIFR 50°F / 50°F variable 0kt 1500m Mist Vertical Visibility of 0ft. 1028 - LGIO 200820Z 00000KT 1500 BR SCT004 10/10 Q1028
LIFR 50°F / 50°F variable 0kt 1200m Mist Vertical Visibility of 0ft. 1028 - LGIO 200750Z 00000KT 1200 BR SCT003 10/10 Q1028
LIFR 50°F / 50°F variable 0kt 800m Fog Vertical Visibility of 0ft. 1028 - LGIO 200720Z 00000KT 0800 FG VV008 10/10 Q1028
LIFR 48.2°F / 48.2°F variable 0kt 690m Fog Vertical Visibility of 0ft. 1028 - LGIO 200650Z 00000KT 0700 FG VV008 09/09 Q1028
LIFR 48.2°F / 48.2°F variable 0kt 500m Fog Vertical Visibility of 0ft. 1028 - LGIO 200620Z 00000KT 0500 FG VV008 09/09 Q1028
LIFR 48.2°F / 48.2°F variable 0kt 500m Fog Vertical Visibility of 0ft. 1028 - LGIO 200550Z 00000KT 0500 FG VV008 09/09 Q1028
48.2°F / 46.4°F variable 2kt Light Rain 1.00mm precipitation Vertical Visibility of 0ft. 1028 - LGIO 200520Z AUTO VRB02KT //// -RA ////// 09/08 Q1028 RE//
48.2°F / 48.2°F variable 0kt Light Rain 1.00mm precipitation Vertical Visibility of 0ft. 1028 - LGIO 200450Z AUTO 00000KT //// -RA ////// 09/09 Q1028 RE//
48.2°F / 48.2°F variable 1kt - 1028 - LGIO 200420Z AUTO VRB01KT //// // ////// 09/09 Q1028 RE//
46.4°F / 46.4°F variable 0kt - 1028 - LGIO 200350Z AUTO 00000KT //// // ////// 08/08 Q1028 RE//
46.4°F / 46.4°F variable 1kt - 1027 - LGIO 200320Z AUTO VRB01KT //// // ////// 08/08 Q1027 RE//
46.4°F / 46.4°F variable 2kt - 1027 - LGIO 200250Z AUTO VRB02KT //// // ////// 08/08 Q1027 RE//
46.4°F / 46.4°F variable 1kt - 1027 - LGIO 200220Z AUTO VRB01KT //// // ////// 08/08 Q1027 RE//
46.4°F / 46.4°F variable 0kt - 1027 - LGIO 200150Z AUTO 00000KT //// // ////// 08/08 Q1027 RE//
44.6°F / 44.6°F variable 1kt - 1028 - LGIO 200120Z AUTO VRB01KT //// // ////// 07/07 Q1028 RE//
44.6°F / 44.6°F variable 0kt - 1028 - LGIO 200050Z AUTO 00000KT //// // ////// 07/07 Q1028 RE//
44.6°F / 44.6°F variable 2kt - 1028 - LGIO 200020Z AUTO VRB02KT //// // ////// 07/07 Q1028 RE//
46.4°F / 44.6°F variable 0kt - 1028 - LGIO 192350Z AUTO 00000KT //// // ////// 08/07 Q1028 RE//
46.4°F / 46.4°F variable 0kt - 1028 - LGIO 192320Z AUTO 00000KT //// // ////// 08/08 Q1028 RE//
46.4°F / 46.4°F variable 0kt - 1028 - LGIO 192250Z AUTO 00000KT //// // ////// 08/08 Q1028 RE//

VFR

62.6°F / 51.8°F

[More]
Wind variable 0kt
Visibility >10km
Weather -
Clouds Few Clouds 1000ft
Pressure 1028
Change -
Raw LGIO 201020Z 00000KT 9999 FEW010 17/11 Q1028

VFR

59°F / 51.8°F

[More]
Wind variable 0kt
Visibility >10km
Weather -
Clouds Few Clouds 1000ft
Pressure 1028
Change -
Raw LGIO 200950Z 00000KT 9999 FEW010 15/11 Q1028

MVFR

53.6°F / 51.8°F

[More]
Wind variable 0kt
Visibility 8000m
Weather -
Clouds Scattered Clouds 400ft
Pressure 1028
Change -
Raw LGIO 200920Z 00000KT 8000 SCT004 12/11 Q1028

LIFR

51.8°F / 51.8°F

[More]
Wind variable 0kt
Visibility 1500m
Weather Mist
Clouds Vertical Visibility of 0ft.
Pressure 1028
Change -
Raw LGIO 200850Z 00000KT 1500 BR SCT004 11/11 Q1028

LIFR

50°F / 50°F

[More]
Wind variable 0kt
Visibility 1500m
Weather Mist
Clouds Vertical Visibility of 0ft.
Pressure 1028
Change -
Raw LGIO 200820Z 00000KT 1500 BR SCT004 10/10 Q1028

LIFR

50°F / 50°F

[More]
Wind variable 0kt
Visibility 1200m
Weather Mist
Clouds Vertical Visibility of 0ft.
Pressure 1028
Change -
Raw LGIO 200750Z 00000KT 1200 BR SCT003 10/10 Q1028

LIFR

50°F / 50°F

[More]
Wind variable 0kt
Visibility 800m
Weather Fog
Clouds Vertical Visibility of 0ft.
Pressure 1028
Change -
Raw LGIO 200720Z 00000KT 0800 FG VV008 10/10 Q1028

LIFR

48.2°F / 48.2°F

[More]
Wind variable 0kt
Visibility 690m
Weather Fog
Clouds Vertical Visibility of 0ft.
Pressure 1028
Change -
Raw LGIO 200650Z 00000KT 0700 FG VV008 09/09 Q1028

LIFR

48.2°F / 48.2°F

[More]
Wind variable 0kt
Visibility 500m
Weather Fog
Clouds Vertical Visibility of 0ft.
Pressure 1028
Change -
Raw LGIO 200620Z 00000KT 0500 FG VV008 09/09 Q1028

LIFR

48.2°F / 48.2°F

[More]
Wind variable 0kt
Visibility 500m
Weather Fog
Clouds Vertical Visibility of 0ft.
Pressure 1028
Change -
Raw LGIO 200550Z 00000KT 0500 FG VV008 09/09 Q1028

48.2°F / 46.4°F

[More]
Wind variable 2kt
Visibility
Weather Light Rain 1.00mm precipitation
Clouds Vertical Visibility of 0ft.
Pressure 1028
Change -
Raw LGIO 200520Z AUTO VRB02KT //// -RA ////// 09/08 Q1028 RE//

48.2°F / 48.2°F

[More]
Wind variable 0kt
Visibility
Weather Light Rain 1.00mm precipitation
Clouds Vertical Visibility of 0ft.
Pressure 1028
Change -
Raw LGIO 200450Z AUTO 00000KT //// -RA ////// 09/09 Q1028 RE//

48.2°F / 48.2°F

[More]
Wind variable 1kt
Visibility
Weather -
Clouds
Pressure 1028
Change -
Raw LGIO 200420Z AUTO VRB01KT //// // ////// 09/09 Q1028 RE//

46.4°F / 46.4°F

[More]
Wind variable 0kt
Visibility
Weather -
Clouds
Pressure 1028
Change -
Raw LGIO 200350Z AUTO 00000KT //// // ////// 08/08 Q1028 RE//

46.4°F / 46.4°F

[More]
Wind variable 1kt
Visibility
Weather -
Clouds
Pressure 1027
Change -
Raw LGIO 200320Z AUTO VRB01KT //// // ////// 08/08 Q1027 RE//

46.4°F / 46.4°F

[More]
Wind variable 2kt
Visibility
Weather -
Clouds
Pressure 1027
Change -
Raw LGIO 200250Z AUTO VRB02KT //// // ////// 08/08 Q1027 RE//

46.4°F / 46.4°F

[More]
Wind variable 1kt
Visibility
Weather -
Clouds
Pressure 1027
Change -
Raw LGIO 200220Z AUTO VRB01KT //// // ////// 08/08 Q1027 RE//

46.4°F / 46.4°F

[More]
Wind variable 0kt
Visibility
Weather -
Clouds
Pressure 1027
Change -
Raw LGIO 200150Z AUTO 00000KT //// // ////// 08/08 Q1027 RE//

44.6°F / 44.6°F

[More]
Wind variable 1kt
Visibility
Weather -
Clouds
Pressure 1028
Change -
Raw LGIO 200120Z AUTO VRB01KT //// // ////// 07/07 Q1028 RE//

44.6°F / 44.6°F

[More]
Wind variable 0kt
Visibility
Weather -
Clouds
Pressure 1028
Change -
Raw LGIO 200050Z AUTO 00000KT //// // ////// 07/07 Q1028 RE//

44.6°F / 44.6°F

[More]
Wind variable 2kt
Visibility
Weather -
Clouds
Pressure 1028
Change -
Raw LGIO 200020Z AUTO VRB02KT //// // ////// 07/07 Q1028 RE//

46.4°F / 44.6°F

[More]
Wind variable 0kt
Visibility
Weather -
Clouds
Pressure 1028
Change -
Raw LGIO 192350Z AUTO 00000KT //// // ////// 08/07 Q1028 RE//

46.4°F / 46.4°F

[More]
Wind variable 0kt
Visibility
Weather -
Clouds
Pressure 1028
Change -
Raw LGIO 192320Z AUTO 00000KT //// // ////// 08/08 Q1028 RE//

46.4°F / 46.4°F

[More]
Wind variable 0kt
Visibility
Weather -
Clouds
Pressure 1028
Change -
Raw LGIO 192250Z AUTO 00000KT //// // ////// 08/08 Q1028 RE//

TAF for Ioannina (LGIO)

From till


From till Wind variable 3kt. Visibility 1500m. Mist . Scattered Clouds 400ft.
Becoming from till Wind variable 3kt. Visibility 10km or more. Mist . Few Clouds 2500ft.

Raw: TAF AMD LGIO 200900Z 2009/2018 VRB03KT 1500 BR SCT004 BECMG 2009/2011 9999 FEW025

Current satellite and rain images for Ioannina, Greece

The location marker is placed on Ioannina. [More]

The real-time satellite image combines visible light during daytime with infrared radiation during nighttime. At night, the image is not dark as infrared radiation can detect temperature differences. Unfortunately, low clouds and fog are difficult to distinguish from ground temperatures and thus can be almost invisible during the night. Meteosat satellite images for Europe are updated in real-time every 5 minutes. GOES-16/GOES-17 (North & South America) and Himawari (Asia) images update every 10 minutes.

Precipitation is estimated from radar and satellites. At night precipitation estimates from satellites are less accurate than during daytime. Orange crosses mark places where lightning was detected (over Europe).

Copyright 2021 EUMETSAT / meteoblue. Lightning data provided by nowcast.

Radar and precipitation nowcast for Ioannina

Drizzle
Light
Moderate
Heavy
Very Heavy
Hail

The location marker is placed on Ioannina. This animation shows the precipitation radar for the last hour, as well as a 1h forecast. Drizzle or light snow fall might be invisible for the radar. Precipitation intensity is colour coded, ranging from light blue to orange.